Regional Weather Roundup
Issued by NWS

Home | Current Version | Previous Version | Text Only | Print | Product List | Glossary Off
Versions: 1 2 3 4 5 6 7 8 9 10 11 12 13 14 15 16 17 18 19 20 21 22 23 24 25 26 27 28 29 30 31 32 33 34 35 36 37 38 39 40 41 42 43 44 45 46 47 48 49 50

000
ASUS43 KLOT 291100
RWRIL

ILLINOIS REGIONAL WEATHER ROUNDUP
NATIONAL WEATHER SERVICE CHICAGO/ROMEOVILLE IL
600 AM CDT TUE JUL 29 2014

NOTE: "FAIR" INDICATES FEW OR NO CLOUDS BELOW 12,000 FEET WITH NO
SIGNIFICANT WEATHER AND/OR OBSTRUCTIONS TO VISIBILITY.

* THESE STATIONS ARE NOT UNDER NWS QUALITY CONTROL. THEY ALSO MAY NOT
  REPORT WEATHER SUCH AS PRECIPITATION OR FOG.

ILZ001-002-007-009-015-016-024-291200-
NORTHWEST ILLINOIS

CITY           SKY/WX    TMP DP  RH WIND       PRES   REMARKS
MOLINE         CLEAR     53  49  86 CALM      30.10S
STERLING*      CLEAR     54  48  82 W6        30.09R
$$

ILZ003-004-008-010-011-017-018-291200-
NORTH CENTRAL ILLINOIS

CITY           SKY/WX    TMP DP  RH WIND       PRES   REMARKS
ROCKFORD       PTCLDY    56  51  84 W3        30.08R
FREEPORT*      CLEAR     53  50  90 W6        30.09S
$$

ILZ005-006-012>014-019>023-291200-
NORTHEAST ILLINOIS

CITY           SKY/WX    TMP DP  RH WIND       PRES   REMARKS
CHICAGO-OHARE  PTCLDY    59  51  75 W6        30.03S
CHICAGO-MIDWAY PTCLDY    61  54  77 SW5       30.03S
AURORA         CLEAR     52  49  89 W6        30.06R
LANSING*       CLEAR     52  49  91 CALM      30.04S
WAUKEGAN       CLOUDY    59  53  80 VRB3      30.02R
DUPAGE AIRPORT CLEAR     56  51  84 CALM      30.04S
WHEELING       PTCLDY    60  53  77 CALM      30.05R
NORTHERLY ISL    N/A     62  53  72 SW3         N/A
$$

LMZ740>746-291200-
SOUTHERN LAKE MICHIGAN

STATION/POSITION SKY/WX   TEMP    WIND        PRES    VSBY  WAVE
                          AIR SEA DIR/SP/G                  HT/PER
                          (F)     (DEG/KT/KT) (MB)    (MI)  (FT/S)
SOUTHERN BUOY              61 60  230/ 10/ 12 1016.0F         1/ 6
WAUKEGAN HARBOR            62     280/  8/ 11   N/A
HARRISON CRIB              63     260/  5/  6   N/A
BURNHAM HARBOR             62     260/  3/  6   N/A
CALUMET HARBOR             59     220/  3/  4 1015.8S
MICHIGAN CITY              58     170/  6/  7   N/A
MICHIGAN CITY 6N           63 67  220/ 10/ 12   N/A           2/ 6
ST. JOSEPH                 64 66  220/  8/ 12   N/A           2/ 5
$$

ILZ025>027-034>036-040-047-049-050-058-095>099-291200-
WEST-CENTRAL ILLINOIS

CITY           SKY/WX    TMP DP  RH WIND       PRES   REMARKS
QUINCY         CLEAR     57  55  93 W5        30.14S
GALESBURG*     FOG       53  53 100 W5        30.11S VSB<1/4
MACOMB*        CLEAR     52  52 100 W3        30.14S
$$

ILZ028>032-037-038-041>044-048-051>054-059>061-291200-
CENTRAL ILLINOIS

CITY           SKY/WX    TMP DP  RH WIND       PRES   REMARKS
PONTIAC        CLOUDY    55  55 100 W3        30.07S
DECATUR        CLEAR     60  52  74 NW7       30.10S
PEORIA         CLEAR     59  51  75 W3        30.10S
SPRINGFIELD    CLEAR     52  50  93 SW3       30.12S
TAYLORVILLE    NOT AVBL
$$

ILZ033-039-045-046-055>057-062-063-291200-
EAST-CENTRAL ILLINOIS

CITY           SKY/WX    TMP DP  RH WIND       PRES   REMARKS
CHAMPAIGN      CLOUDY    54  53  97 W7        30.09S
MATTOON        PTCLDY    54  51  90 W8        30.09S
$$

ILZ079-100>102-291200-
SOUTHWEST ILLINOIS

CITY           SKY/WX    TMP DP  RH WIND       PRES   REMARKS
CAHOKIA*       CLEAR     52  50  93 CALM      30.14R
SPARTA*        CLEAR     54  52  94 CALM      30.14S
$$

ILZ064>066-069>071-074>076-080>082-084>086-088>090-092>094-291200-
SOUTH-CENTRAL ILLINOIS

CITY           SKY/WX    TMP DP  RH WIND       PRES   REMARKS
CARBONDALE     CLEAR     55  52  89 CALM      30.13R
MT. VERNON     CLEAR     52  46  82 CALM      30.13S
SALEM*         CLEAR    N/A N/A N/A CALM      30.13S
$$

ILZ067-068-072-073-078-083-087-091-291200-
SOUTHEAST ILLINOIS

CITY           SKY/WX    TMP DP  RH WIND       PRES   REMARKS
LAWRENCEVILLE  CLOUDY    56  53  90 W3        30.10S
HARRISBURG*    CLEAR     52  52 100 CALM      30.13R
ROBINSON*      CLOUDY    55  54  96 CALM      30.10S
$$

ABBREVIATIONS USED IN REMARKS
   TC - TEMPERATURE IN CELSIUS
  WCI - WIND CHILL INDEX
   HX - HEAT INDEX
  VSB - VISIBILITY
$$




USA.gov is the U.S. government's official web portal to all federal, state and local government web resources and services.